Regional Weather Roundup
Issued by NWS Newport/Morehead, NC

Current Version | Previous Version | Text Only | Print | Product List | Glossary On
Versions: 1 2 3 4 5 6 7 8 9 10 11 12 13 14 15 16 17 18 19 20 21 22 23 24 25 26 27 28 29 30 31 32 33 34 35 36 37 38 39 40 41 42 43 44 45 46 47 48 49 50
000
ASUS42 KMHX 181626
RWRMHX
WEATHER ROUNDUP FOR EASTERN NORTH CAROLINA
NATIONAL WEATHER SERVICE NEWPORT/MOREHEAD CITY NC
1200 PM EDT MON SEP 18 2017

NOTE: "FAIR" INDICATES FEW OR NO CLOUDS BELOW 12,000 FEET
WITH NO SIGNIFICANT WEATHER AND/OR OBSTRUCTIONS TO VISIBILITY

NCZ015>017-031-032-045>047-102-103-181700-
NORTH COAST

CITY           SKY/WX    TMP DP  RH WIND       PRES   REMARKS
EDENTON        PTSUNNY   81  69  67 NE10      29.98F
ELIZABETH CITY MOSUNNY   79  70  74 N18       29.98F
KITTY HAWK     CLOUDY    74  69  82 N13G22    29.94F
MANTEO         CLOUDY    75  70  85 NE16G26   29.95F

$$

NCZ045>047-081-094-103-104-181700-
CENTRAL COAST

CITY           SKY/WX    TMP DP  RH WIND       PRES   REMARKS
FRISCO         CLOUDY    77  73  87 N12G24    29.92S

$$

NCZ095-097-098-100-101-181700-
SOUTHERN COAST

CITY           SKY/WX    TMP DP  RH WIND       PRES   REMARKS
BEAUFORT       PTSUNNY   79  71  76 N17G28    29.94
CEDAR ISLAND   NOT AVBL
JACKSONVILLE   PTSUNNY   81  69  67 N10G17    29.96F
PINEY ISLAND     N/A    N/A N/A N/A N16       29.94S
WILMINGTON     CLOUDY    76  69  79 N14       29.99S


$$

NCZ011>013-027>030-043-044-078>080-089-090>093-098-181700-
COASTAL PLAIN

CITY           SKY/WX    TMP DP  RH WIND       PRES   REMARKS
AHOSKIE          N/A     75  70  83 N10       30.01F
CLINTON        CLOUDY    75  68  78 N6        30.03S
ELIZABETHTOWN  NOT AVBL
GOLDSBORO      CLOUDY    74  72  95 N10       30.01S
GREENVILLE     MOSUNNY   79  70  73 N14       30.01F
HAVELOCK       PTSUNNY   80  71  74 N10G20    29.96F
KENANSVILLE    CLOUDY    72  68  88 N8        30.02S
KINSTON        CLOUDY    77  70  78 N8        30.01F
NEW BERN       PTSUNNY   79  70  74 N16       29.98F
RICHLANDS      CLOUDY    76  70  82 N7        30.00F
ROCKY MOUNT    CLOUDY    77  69  76 N9        30.02F
WASHINGTON     MOSUNNY   81  69  66 N9G20     29.98F
WHITEVILLE     MOSUNNY   78  67  69 N6        30.00F

$$

AMZ130-135-150-152-154-156-158-170-250-252-270-ANZ085-086-088-633-658-670-181700-
MARINE OBSERVATIONS

STATION/POSITION TIME  TEMP    WIND        PRES    WAVE   SWELL
                       AIR SEA DIR/SP/G            HT/PER HT/PER
                 (UTC) (F)     (DEG/KT/KT) (MB)    (FT/S) (FT/S)
CHESAPEAKE LIGHT NOT AVBL
64 E VA BEACH    1550   73 72   10/ 17/ 23 1013.7   13/12  11/12
DUCK             1600   74 76   10/ 19/ 26 1013.8
2 E DUCK         1600      76                N/A     9/13   7/13
OREGON INLET     1600   75 76  360/ 13/ 20 1013.5
13E OREGON INLT  1548      74                N/A    12/12  13/12
HATTERAS CG      1600   75 77   10/ 18/ 25 1013.0
DIAMOND BUOY     1550   76 81   10/ 23/ 27 1011.6   12/13  10/13
CAPE LOOKOUT     1600   79     360/ 17/ 21 1013.3
BEAUFORT LAB     1600   78 74   20/ 13/ 20 1013.3
30 SE NEW RVR IN 1608   77      10/ 16/ 21 1013.6
30 SE NEW RVR IN NOT AVBL
27 SE WRIGHTSVLE 1608   77 80   20/ 16/ 21 1014.3
5 SE WRIGHTSVLE  1608   75 78  360/ 14/ 21 1014.9
225 S CAPE HAT   1550   80 80  310/ 19/ 23 1010.1   11/11  10/11
41 SE CHARLESTON 1610   76 81   10/ 14/ 17 1015.2

$$




USA.gov is the U.S. government's official web portal to all federal, state and local government web resources and services.